Regional Weather Roundup
Issued by NWS

Home | Current Version | Previous Version | Graphics & Text | Print | Product List | Glossary On
Versions: 1 2 3 4 5 6 7 8 9 10 11 12 13 14 15 16 17 18 19 20 21 22 23 24 25 26 27 28 29 30 31 32 33 34 35 36 37 38 39 40 41 42 43 44 45 46 47 48 49 50
000
ASUS43 KMKX 241321
RWRWI

WISCONSIN REGIONAL WEATHER ROUNDUP
NATIONAL WEATHER SERVICE MILWAUKEE/SULLIVAN WI
800 AM CDT WED MAY 24 2017

NOTE: "FAIR" INDICATES FEW OR NO CLOUDS BELOW 12,000 FEET WITH NO
SIGNIFICANT WEATHER AND/OR OBSTRUCTIONS TO VISIBILITY.

WIZ001-002-006>008-014>016-023>028-241400-
NORTHWEST WISCONSIN

CITY           SKY/WX    TMP DP  RH WIND       PRES   REMARKS
SUPERIOR ARPT  NOT AVBL
ASHLAND        CLOUDY    44  41  89 N9        29.83S
HAYWARD        CLOUDY    48  43  82 N7        29.80R
SIREN          CLOUDY    47  44  91 CALM      29.80S
CUMBERLAND     CLOUDY    46  43  87 N8        29.78S
RICE LAKE      CLOUDY    47  43  85 NE7       29.79S
CHETEK         CLOUDY    48  44  84 NE7       29.77S
LADYSMITH      CLOUDY    50  45  81 NE9       29.78S
EAU CLAIRE     CLOUDY    50  44  80 NE5       29.74F
MENOMONIE      MOSUNNY   49  45  85 N9G16     29.76F
NEW RICHMOND   CLOUDY    48  43  84 NE7       29.78S
OSCEOLA        CLOUDY    48  48 100 N6        29.81S
$$

WIZ003>005-009-010-017-018-241400-
NORTH CENTRAL WISCONSIN

CITY           SKY/WX    TMP DP  RH WIND       PRES   REMARKS
MANITOWISH WTR CLOUDY    46  46  99 NE7       29.77S
ARBOR VITAE    CLOUDY    52  47  83 NE8       29.75F
WOODRUFF       CLOUDY    52  47  83 NE8       29.75F
RHINELANDER    LGT RAIN  48  45  89 NE6       29.75S
EAGLE RIVER    RAIN      46  44  93 NE10G17   29.75S
LAND O LAKES   CLOUDY    47  43  88 NE8       29.78S
PHILLIPS       CLOUDY    47  44  90 N9        29.75F
TOMAHAWK       DRIZZLE   46  44  92 N3        29.75S
MEDFORD        CLOUDY    46  44  91 NE8       29.74R
MERRILL        CLOUDY    47  47  99 N7        29.74S
$$

WIZ029-030-035-036-043>047-241400-
CENTRAL WISCONSIN

CITY           SKY/WX    TMP DP  RH WIND       PRES   REMARKS
WAUSAU         LGT RAIN  47  46  97 N6        29.71F
MOSINEE        LGT RAIN  46  46 100 N8        29.73S FOG
MARSHFIELD     CLOUDY    47  45  93 NE9       29.71F
STEVENS POINT  DRIZZLE   46  46 100 N5        29.72R
WAUPACA        CLOUDY    50  49  95 N6        29.70F FOG
WAUTOMA        CLOUDY    49  48  97 NE9G17    29.70S
WISC RAPIDS    CLOUDY    49  47  93 NE9       29.72S
CAMP DOUGLAS   DRIZZLE   48  48 100 N9        29.70S
$$

WIZ011>013-019>022-031-037>040-048>050-241400-
NORTHEAST WISCONSIN

CITY           SKY/WX    TMP DP  RH WIND       PRES   REMARKS
ANTIGO         DRIZZLE   46  46  99 NE8       29.73S
SHAWANO        CLOUDY    50  48  93 NE9       29.71S
OCONTO         CLOUDY    47  46  97 NE8       29.71S
STURGEON BAY   CLOUDY    49  46  90 NE8       29.71S
GREEN BAY      LGT RAIN  49  49 100 NE15      29.70S FOG
MANITOWOC      CLOUDY    47  45  93 N8        29.69F FOG
APPLETON         N/A     48  48 100 NE13G21   29.67F FOG
CLINTONVILLE   CLOUDY    46  46 100 NE7       29.71S FOG
OSHKOSH        CLOUDY    50  48  93 NE8       29.68S
$$

WIZ032>034-041-042-053>061-241400-
SOUTHWEST WISCONSIN

CITY           SKY/WX    TMP DP  RH WIND       PRES   REMARKS
LA CROSSE      CLOUDY    53  49  86 N8        29.71S
SPARTA         CLOUDY    48  48 100 N6        29.71F
VIROQUA        CLOUDY    49  48  95 MISG      29.68S
BOSCOBEL       CLOUDY    53  50  89 N6        29.68S
PRAIRIE DU CHI CLOUDY    52  47  81 N6        29.68S
PLATTEVILLE    CLOUDY    51  51 100 N10       29.66S
$$

WIZ056-057-062-063-064-067-068-241400-
SOUTH CENTRAL WISCONSIN

CITY           SKY/WX    TMP DP  RH WIND       PRES   REMARKS
REEDSBURG      CLOUDY    48  48 100 NE6       29.68S
BARABOO/DELLS  CLOUDY    48  47  96 NE6       29.68S FOG
LONE ROCK      CLOUDY    53  49  86 N6        29.67S FOG
MINERAL POINT  CLOUDY    52  52 100 NE9       29.66S FOG
MADISON        DRIZZLE   51  50  96 N9        29.65F FOG
MIDDLETON      CLOUDY    53  52  99 N8        29.66S
WATERTOWN      CLOUDY    50  50 100 N6        29.65S
MONROE         CLOUDY    50  48  93 N10       29.64S FOG
JANESVILLE     CLOUDY    52  52 100 N12       29.63S FOG
$$

WIZ051-052-058>065-066-070>072-241400-
SOUTHEAST WISCONSIN

CITY           SKY/WX    TMP DP  RH WIND       PRES   REMARKS
MILWAUKEE      LGT RAIN  49  48  97 N8        29.65S VSB 3/4
WAUKESHA       CLOUDY    48  48 100 NE6       29.65F FOG
MILWAUKEE/TIMM RAIN      48  46  93 NE6       29.66S FOG
RACINE         LGT RAIN  48  46  93 N12       29.65S FOG
KENOSHA        LGT RAIN  50  49  96 N9        29.62F
FOND DU LAC    CLOUDY    50  47  89 NE8       29.68S
SHEBOYGAN      LGT RAIN  48  48 100 NE7       29.67F FOG
WEST BEND      CLOUDY    48  48 100 N5        29.66S FOG
JUNEAU         CLOUDY    49  48  97 N6        29.67S
$$

LSZ147-162-241400-
LAKE SUPERIOR

STATION/POSITION TIME  TEMP    WIND        PRES    WAVE
                       AIR SEA DIR/SP/G            HT/PER
                 (UTC) (F)     (DEG/KT/KT) (MB)    (FT/S)
W MID LAKE BUOY  1250   41 37   10/  8/ 10 1010.7R   1
DEVILS ISLAND    1300   42      50/  8/  9 1011.0R
SAXON HARBOR     1240   42      40/  6/  6 1009.8S
$$

LMZ867-665-643>646-241400-
LAKE MICHIGAN

STATION/POSITION TIME  TEMP    WIND        PRES    WAVE
                       AIR SEA DIR/SP/G            HT/PER
                 (UTC) (F)     (DEG/KT/KT) (MB)    (FT/S)
CHAMBERS ISLAND  1240   47      10/ 14/ 16 1006.4S
N MID LAKE BUOY  1250   42 39   50/ 10/ 12 1007.2F   1
NORTHPORT PIER   1240   46      10/  6/  8 1006.8S
KEWAUNEE LAKESHO 1254   46      30/  9/ 15 1005.3S
SHEBOYGAN LAKESH 1300   45      10/ 15/ 16 1005.0F
PORT WASHINGTON  1230   49     340/  3/  7 1005.8S
ATWATER BUOY     1209   45      10/ 12/ 16 1004.2F
MILWAUKEE LAKESH 1300   47      10/ 11/ 12   N/A
S MID LAKE BUOY  1250   48 45   10/ 16/ 16 1002.4F   2/ 3
KENOSHA   LAKESH 1300   49      10/ 17/ 18 1003.0
$$

TC  - TEMPERATURE IN CELSIUS
VSB - VISIBILITY IN STATUTE MILES
WCI - WIND CHILL INDEX
HX  - HEAT INDEX




USA.gov is the U.S. government's official web portal to all federal, state and local government web resources and services.